Waarnemingen

Advertentie
Mijn weer
Lille, Frankrijk (7015): temperatuur & dauwpunt: 21.03.2017 06:00:00 - 27.03.2017 06:00:00 (CEST)Lille, Frankrijk (7015): temperatuur 5cm: 21.03.2017 06:00:00 - 27.03.2017 06:00:00 (CEST)Lille, Frankrijk (7015): temperatuur -20cm & temperatuur -100cm: 21.03.2017 06:00:00 - 27.03.2017 06:00:00 (CEST)Lille, Frankrijk (7015): windsnelheid & windstoten: 21.03.2017 06:00:00 - 27.03.2017 06:00:00 (CEST)Lille, Frankrijk (7015): windrichting: 21.03.2017 06:00:00 - 27.03.2017 06:00:00 (CEST)Lille, Frankrijk (7015): luchtdruk: 21.03.2017 06:00:00 - 27.03.2017 06:00:00 (CEST)Lille, Frankrijk (7015): zicht: 21.03.2017 06:00:00 - 27.03.2017 06:00:00 (CEST)Lille, Frankrijk (7015): Zonneschijnduur: 21.03.2017 06:00:00 - 27.03.2017 06:00:00 (CEST)Lille, Frankrijk (7015): neerslag: 21.03.2017 06:00:00 - 27.03.2017 06:00:00 (CEST)
Datum & Tijd tt [°C] td [°C] tt 5cm [°C] tt -20cm [°C] tt -100cm [°C] ff [km/u] ff [kn] fx [km/u] fx [kn] dd ppp [hPa] vv [km] sd [min] rr [mm]
27.03.2017 06:00:00 5,7 2,5 2,2 8,7 8,7 7 4 8 4 NO 1021,7 9 0 0,0
27.03.2017 05:00:00 5,6 2,4 4,1 8,8 8,8 4 2 11 6 O 1021,7 8 0 0,0
27.03.2017 04:00:00 7,2 2,9 6,0 9,0 8,7 10 6 12 6 NO 1022,1 10 0 0,0
27.03.2017 03:00:00 7,8 2,9 6,6 9,1 8,8 5 3 18 10 O 1022,6 11 0 0,0
27.03.2017 02:00:00 8,6 3,2 6,2 9,3 8,8 12 7 15 8 NNO 1022,4 13 0 0,0
27.03.2017 01:00:00 8,7 3,3 5,5 9,5 8,8 3 2 16 8 NO 1022,8 12 0 0,0
27.03.2017 00:00:00 9,9 3,4 8,9 9,7 8,8 11 6 18 10 ONO 1022,9 13 0 0,0
26.03.2017 23:00:00 10,5 3,7 9,5 9,8 8,7 13 7 33 18 ONO 1023,1 14 0 0,0
26.03.2017 22:00:00 11,8 3,3 11,0 10,0 8,8 14 8 29 16 ONO 1022,7 18 0 0,0
26.03.2017 21:00:00 12,7 3,4 11,6 10,1 8,8 12 6 21 12 NO 1022,2 22 0 0,0
26.03.2017 20:00:00 14,0 2,5 13,0 10,3 8,7 14 8 29 16 ONO 1021,7 20 0 0,0
26.03.2017 19:00:00 15,3 2,8 15,4 10,3 8,8 19 10 26 14 ONO 1021,3 20 49 0,0
26.03.2017 18:00:00 16,0 2,0 18,9 10,1 8,8 20 11 26 14 O 1021,5 36 60 0,0
26.03.2017 17:00:00 16,3 2,7 19,9 9,8 8,8 17 9 28 15 O 1021,6 19 60 0,0
26.03.2017 16:00:00 15,9 4,6 17,6 9,4 8,7 20 11 29 16 O 1022,0 19 56 0,0
26.03.2017 15:00:00 15,7 4,4 18,6 9,0 8,7 21 11 30 16 O 1022,2 20 60 0,0
26.03.2017 14:00:00 14,6 3,4 17,5 8,6 8,8 19 11 29 16 O 1022,8 20 60 0,0
26.03.2017 13:00:00 13,5 3,0 16,9 8,2 8,7 17 9 31 17 O 1023,0 19 60 0,0
26.03.2017 12:00:00 12,6 1,9 14,8 7,9 8,7 20 11 28 15 O 1023,2 19 60 0,0
26.03.2017 11:00:00 11,4 1,9 11,4 7,7 8,7 18 10 26 14 O 1023,0 19 60 0,0
26.03.2017 10:00:00 9,1 2,2 7,5 7,7 8,7 16 9 27 15 O 1023,3 18 60 0,0
26.03.2017 09:00:00 6,4 1,9 5,3 7,7 8,7 18 10 28 15 O 1023,2 20 0 0,0
26.03.2017 08:00:00 5,6 1,1 4,9 7,8 8,8 19 10 29 15 ONO 1023,1 24 0 0,0
26.03.2017 07:00:00 5,9 0,4 5,3 8,0 8,8 19 10 26 14 ONO 1022,9 33 0 0,0
26.03.2017 06:00:00 6,4 -0,1 5,5 8,1 8,7 17 9 31 17 ONO 1022,7 39 0 0,0
26.03.2017 05:00:00 6,8 -0,7 6,1 8,2 8,7 19 11 30 16 ONO 1022,1 47 0 0,0
26.03.2017 04:00:00 7,2 -1,0 6,6 8,3 8,7 19 10 29 16 ONO 1022,6 49 0 0,0
26.03.2017 03:00:00 8,0 -1,3 7,2 8,5 8,7 16 9 32 17 ONO 1022,9 50 0 0,0
26.03.2017 02:00:00 8,6 -1,5 7,7 8,6 8,8 18 10 27 15 ONO 1022,9 56 0 0,0
26.03.2017 01:00:00 9,2 -1,8 8,4 8,8 8,8 21 11 37 20 ONO 1022,8 57 0 0,0
26.03.2017 00:00:00 10,1 -2,3 9,3 8,9 8,7 24 13 39 21 ONO 1022,6 60 0 0,0
25.03.2017 23:00:00 10,6 -1,8 9,9 9,1 8,7 23 13 37 20 NO 1022,9 54 0 0,0
25.03.2017 22:00:00 11,7 -1,5 10,8 9,3 8,7 22 12 38 20 NO 1022,9 36 0 0,0
25.03.2017 21:00:00 12,4 -0,8 11,6 9,4 8,7 21 11 35 19 ONO 1022,6 36 0 0,0
25.03.2017 20:00:00 13,7 -1,5 12,8 9,5 8,7 26 14 41 22 ONO 1022,5 45 33 0,0
25.03.2017 19:00:00 14,7 -0,6 16,4 9,5 8,7 28 15 53 29 ONO 1022,3 20 60 0,0
25.03.2017 18:00:00 15,3 -0,9 17,6 9,4 8,7 34 18 54 29 ONO 1022,6 18 60 0,0
25.03.2017 17:00:00 15,7 -0,5 18,8 9,2 8,7 34 18 55 30 ONO 1023,1 17 60 0,0
25.03.2017 16:00:00 15,4 -0,8 18,0 9,0 8,7 37 20 61 33 ONO 1024,0 14 60 0,0
25.03.2017 15:00:00 15,0 0,4 17,8 8,7 8,7 39 21 60 33 ONO 1025,0 13 60 0,0
25.03.2017 14:00:00 14,2 0,1 16,3 8,4 8,7 38 21 59 32 ONO 1025,6 11 60 0,0
25.03.2017 13:00:00 12,7 2,8 15,0 8,1 8,7 32 18 49 27 ONO 1026,6 11 60 0,0
25.03.2017 12:00:00 11,4 3,4 12,5 7,9 8,7 31 17 44 24 ONO 1027,5 10 60 0,0
25.03.2017 11:00:00 9,2 2,7 9,6 7,9 8,7 23 13 34 19 ONO 1027,8 10 60 0,0
25.03.2017 10:00:00 7,0 1,9 8,0 7,9 8,7 22 12 32 17 ONO 1028,5 10 60 0,0
25.03.2017 09:00:00 5,9 1,6 5,0 8,0 8,7 18 10 31 17 NO 1028,6 9 55 0,0
25.03.2017 08:00:00 5,3 1,6 4,6 8,1 8,7 16 9 28 15 NO 1028,6 10 0 0,0
25.03.2017 07:00:00 5,6 1,7 4,9 8,3 8,7 19 10 31 17 NO 1028,6 10 0 0,0
25.03.2017 06:00:00 6,0 1,9 5,4 8,4 8,7 16 8 26 14 ONO 1028,4 11 0 0,0
25.03.2017 05:00:00 6,6 2,1 5,9 8,6 8,7 18 10 27 15 NO 1028,7 13 0 0,0
25.03.2017 04:00:00 6,8 2,3 5,7 8,7 8,7 15 8 20 11 NO 1029,2 14 0 0,0
25.03.2017 03:00:00 7,4 2,5 6,6 8,8 8,7 12 7 27 14 NO 1029,4 16 0 0,0
25.03.2017 02:00:00 8,3 2,9 7,6 9,0 8,7 18 10 26 14 NO 1029,2 16 0 0,0
25.03.2017 01:00:00 9,0 3,4 8,2 9,1 8,7 19 10 29 16 NO 1029,1 13 0 0,0
25.03.2017 00:00:00 9,4 3,8 8,5 9,3 8,7 17 9 24 13 NO 1029,2 12 0 0,0
24.03.2017 23:00:00 9,8 4,2 8,9 9,4 8,7 14 8 23 12 ONO 1029,0 12 0 0,0
24.03.2017 22:00:00 10,5 4,4 9,5 9,6 8,7 15 8 19 11 NO 1028,6 11 0 0,0
24.03.2017 21:00:00 11,1 3,9 10,0 9,7 8,7 11 6 29 16 ONO 1028,2 12 0 0,0
24.03.2017 20:00:00 12,3 4,3 11,7 9,8 8,7 19 10 34 18 NO 1027,5 11 21 0,0
24.03.2017 19:00:00 13,2 4,9 13,4 9,8 8,7 21 11 37 20 NO 1026,7 11 53 0,0
24.03.2017 18:00:00 13,6 4,2 15,4 9,7 8,7 23 12 39 21 NO 1026,5 11 60 0,0
24.03.2017 17:00:00 13,1 4,5 14,6 9,6 8,7 25 14 37 20 ONO 1026,4 13 56 0,0
24.03.2017 16:00:00 13,2 5,1 15,0 9,3 8,7 23 13 38 20 ONO 1026,4 8 60 0,0
24.03.2017 15:00:00 12,6 5,3 14,5 9,0 8,7 21 11 32 18 ONO 1026,7 7 60 0,0
24.03.2017 14:00:00 11,9 5,3 13,7 8,7 8,7 26 14 36 20 O 1026,8 5 56 0,0
24.03.2017 13:00:00 10,5 6,1 11,6 8,5 8,7 21 11 31 17 ONO 1026,7 6 17 0,0
24.03.2017 12:00:00 9,5 5,9 10,7 8,4 8,7 18 10 36 19 ONO 1026,8 6 20 0,0
24.03.2017 11:00:00 9,2 5,9 8,2 8,3 8,7 22 12 33 18 O 1026,3 4,4 28 0,0
24.03.2017 10:00:00 7,1 4,9 6,7 8,3 8,7 17 9 29 16 ONO 1025,3 3,8 0 0,0
24.03.2017 09:00:00 6,7 4,7 6,2 8,4 8,7 17 9 23 12 ONO 1024,4 3,6 0 0,0
24.03.2017 08:00:00 6,4 4,6 6,0 8,5 8,7 12 6 21 11 ONO 1023,2 3,4 0 0,0
24.03.2017 07:00:00 6,8 4,5 6,4 8,5 8,7 16 9 29 16 ONO 1022,1 4,0 0 0,0
24.03.2017 06:00:00 7,5 4,6 7,0 8,6 8,7 19 10 30 16 ONO 1021,6 4,7 0 0,0
24.03.2017 05:00:00 7,9 4,5 7,5 8,7 8,7 21 11 34 18 O 1021,4 6 0 0,0
24.03.2017 04:00:00 8,6 4,2 8,3 8,8 8,7 22 12 36 19 ONO 1020,9 8 0 0,0
24.03.2017 03:00:00 9,2 4,2 8,8 8,9 8,7 22 12 35 19 ONO 1020,5 10 0 0,0
24.03.2017 02:00:00 9,6 4,2 9,1 8,9 8,7 24 13 35 19 ONO 1020,3 13 0 0,0
24.03.2017 01:00:00 10,1 4,2 9,7 9,0 8,7 21 11 34 19 ONO 1019,7 14 0 0,0
24.03.2017 00:00:00 10,6 4,5 10,0 9,1 8,7 22 12 34 18 ONO 1018,9 15 0 0,0
23.03.2017 23:00:00 11,2 3,9 10,5 9,2 8,8 21 12 35 19 ONO 1017,7 19 0 0,0
23.03.2017 22:00:00 12,0 4,2 11,3 9,3 8,8 22 12 32 17 ONO 1016,6 21 0 0,0
23.03.2017 21:00:00 12,5 4,2 11,7 9,4 8,8 18 10 29 15 ONO 1015,7 22 0 0,0
23.03.2017 20:00:00 13,4 4,5 12,6 9,4 8,8 18 10 27 14 NO 1014,7 26 0 0,0
23.03.2017 19:00:00 14,2 4,5 14,0 9,4 8,8 18 10 33 18 ONO 1014,2 29 0 0,0
23.03.2017 18:00:00 14,3 4,0 14,7 9,3 8,8 23 12 39 21 ONO 1013,4 30 13 0,0
23.03.2017 17:00:00 15,7 4,7 14,6 9,0 8,7 29 16 39 21 O 1013,2 20 42 0,0
23.03.2017 16:00:00 14,7 3,8 15,4 8,7 8,7 30 16 44 24 O 1013,3 12 50 0,0
23.03.2017 15:00:00 13,3 4,2 13,9 8,4 8,7 28 15 40 22 O 1013,1 12 23 0,0
23.03.2017 14:00:00 12,4 4,4 13,4 8,1 8,8 29 15 39 21 O 1013,4 7 38 0,0
23.03.2017 13:00:00 12,1 4,6 13,5 7,7 8,8 29 16 43 23 O 1013,1 6 60 0,0
23.03.2017 12:00:00 10,1 3,6 10,9 7,5 8,7 23 13 34 19 ONO 1012,9 5 60 0,0
23.03.2017 11:00:00 8,4 3,8 9,8 7,4 8,8 24 13 36 19 O 1012,8 5 60 0,0
23.03.2017 10:00:00 6,5 3,6 5,0 7,4 8,8 16 9 24 13 ONO 1012,8 6 35 0,0
23.03.2017 09:00:00 5,0 2,7 3,7 7,5 8,8 12 6 23 12 ONO 1012,8 5 15 0,0
23.03.2017 08:00:00 3,8 2,2 2,8 7,6 8,8 17 9 29 16 ONO 1012,0 5 0 0,0
23.03.2017 07:00:00 3,6 1,8 3,0 7,7 8,8 14 8 18 10 ONO 1011,8 7 0 0,0
23.03.2017 06:00:00 3,7 1,6 3,0 7,8 8,8 9 5 16 9 ONO 1011,8 7 0 0,0
23.03.2017 05:00:00 4,3 1,8 3,3 7,9 8,8 12 6 17 9 ONO 1011,6 9 0 0,0
23.03.2017 04:00:00 4,3 1,8 3,1 8,1 8,8 11 6 19 10 O 1012,0 9 0 0,0
23.03.2017 03:00:00 4,2 1,6 3,2 8,3 8,8 11 6 18 10 OZO 1012,1 14 0 0,0
23.03.2017 02:00:00 4,5 1,5 3,7 8,5 8,8 11 6 22 12 OZO 1011,9 17 0 0,0
23.03.2017 01:00:00 5,6 1,9 4,3 8,6 8,8 16 9 22 12 O 1011,4 23 0 0,0
23.03.2017 00:00:00 6,5 1,8 5,3 8,8 8,8 13 7 25 14 OZO 1011,8 33 0 0,0
22.03.2017 23:00:00 7,6 2,1 6,8 8,9 8,8 16 9 23 13 OZO 1011,3 44 0 0,0
22.03.2017 22:00:00 8,5 1,6 7,8 9,0 8,8 15 8 26 14 OZO 1011,1 48 0 0,0
22.03.2017 21:00:00 9,4 1,5 8,9 9,1 8,8 13 7 20 11 OZO 1010,8 45 0 0,0
22.03.2017 20:00:00 9,7 2,1 9,4 9,2 8,8 15 8 34 19 OZO 1010,3 52 0 0,0
22.03.2017 19:00:00 10,4 1,5 10,3 9,2 8,8 20 11 30 16 ZO 1009,9 57 21 0,0
22.03.2017 18:00:00 11,3 1,5 11,4 9,1 8,8 17 9 36 19 ZZO 1009,7 54 2 0,0
22.03.2017 17:00:00 11,4 2,7 11,6 8,9 8,8 22 12 39 21 ZZO 1009,8 46 14 0,0
22.03.2017 16:00:00 11,0 4,2 11,9 8,6 8,8 23 12 43 23 ZZO 1010,2 32 35 0,0
22.03.2017 15:00:00 10,9 4,6 11,8 8,3 8,8 27 15 45 25 ZZO 1010,5 26 45 0,0
22.03.2017 14:00:00 9,3 3,7 9,2 7,9 8,7 29 16 44 24 ZZO 1010,9 20 48 0,0
22.03.2017 13:00:00 7,9 3,4 9,3 7,7 8,8 29 16 41 22 Z 1011,3 17 9 0,0
22.03.2017 12:00:00 7,9 4,1 8,7 7,4 8,8 26 14 39 21 ZZO 1011,3 20 32 0,0
22.03.2017 11:00:00 6,7 3,3 8,9 7,3 8,7 22 12 37 20 ZZO 1011,3 19 60 0,0
22.03.2017 10:00:00 6,3 2,7 6,4 7,3 8,7 19 10 31 17 ZZO 1011,2 19 60 0,0
22.03.2017 09:00:00 4,2 1,1 1,9 7,4 8,7 17 9 27 14 ZZO 1011,2 27 46 0,0
22.03.2017 08:00:00 2,3 0,0 1,6 7,6 8,8 13 7 21 12 ZZO 1011,4 34 0 0,0
22.03.2017 07:00:00 2,5 0,2 1,3 7,7 8,7 13 7 21 11 ZZO 1011,6 34 0 0,0
22.03.2017 06:00:00 2,4 0,1 1,1 7,9 8,8 14 8 23 12 ZZO 1011,9 38 0 0,0
22.03.2017 05:00:00 2,4 0,0 1,0 8,0 8,7 14 8 21 12 ZZO 1012,0 36 0 0,0
22.03.2017 04:00:00 2,3 -0,8 1,3 8,2 8,7 10 6 18 10 ZZO 1012,6 40 0 0,0
22.03.2017 03:00:00 3,1 0,0 0,9 8,4 8,7 11 6 15 8 Z 1013,3 44 0 0,0
22.03.2017 02:00:00 2,0 -0,3 0,5 8,7 8,7 8 4 12 7 Z 1013,5 36 0 0,0
22.03.2017 01:00:00 2,8 0,2 1,2 8,9 8,7 6 4 10 6 ZZO 1013,5 33 0 0,0
22.03.2017 00:00:00 3,9 0,6 2,2 9,0 8,7 5 3 6 4 Z 1013,6 34 0 0,0
21.03.2017 23:00:00 5,1 0,7 3,1 9,3 8,7 5 3 12 6 ZZW 1014,0 45 0 0,0
21.03.2017 22:00:00 5,3 0,7 3,6 9,5 8,7 8 4 12 6 ZW 1014,1 44 0 0,0
21.03.2017 21:00:00 6,7 -0,1 5,5 9,7 8,7 13 7 26 14 W 1013,9 58 0 0,0
21.03.2017 20:00:00 8,1 -0,4 7,4 9,9 8,7 17 9 31 17 W 1013,4 59 1 0,0
21.03.2017 19:00:00 9,2 -1,3 9,3 10,0 8,7 21 11 36 19 WNW 1012,8 36 57 0,0
21.03.2017 18:00:00 10,5 -1,3 11,5 10,0 8,7 21 11 35 19 W 1012,6 36 55 0,0
21.03.2017 17:00:00 10,8 -1,3 12,3 9,8 8,7 21 11 37 20 WZW 1012,6 19 60 0,0
21.03.2017 16:00:00 10,5 -2,6 12,0 9,7 8,7 25 13 37 20 WNW 1012,5 60 25 0,0
21.03.2017 15:00:00 9,9 -1,8 11,1 9,5 8,7 22 12 33 18 WNW 1012,5 20 40 0,0
21.03.2017 14:00:00 9,2 -1,8 10,8 9,5 8,7 25 14 39 21 WNW 1012,3 37 0 0,0
21.03.2017 13:00:00 9,4 -0,5 10,8 9,3 8,6 30 16 41 22 WNW 1012,1 42 7 0,0
21.03.2017 12:00:00 9,5 1,1 10,6 9,2 8,7 28 15 40 22 W 1011,6 20 38 0,0
21.03.2017 11:00:00 9,0 3,4 9,0 9,2 8,7 23 13 37 20 WNW 1011,0 39 45 0,0
21.03.2017 10:00:00 8,2 3,8 7,4 9,2 8,7 25 13 33 18 WNW 1010,4 23 9 0,0
21.03.2017 09:00:00 7,7 5,3 7,3 9,3 8,7 19 10 30 16 WZW 1009,3 60 0 0,0
21.03.2017 08:00:00 7,9 4,8 7,4 9,4 8,7 19 10 30 16 WZW 1008,9 60 0 0,0
21.03.2017 07:00:00 7,9 5,4 7,2 9,5 8,7 19 10 28 15 W 1008,3 59 0 0,0
21.03.2017 06:00:00 - - - - - - - - - - - - - -

tt = temperatuur
td = dauwpunt
tt 5cm = temperatuur 5cm
tt -20cm = temperatuur -20cm
tt -100cm = temperatuur -100cm
ff = windsnelheid
fx = windstoten
dd = windrichting
ppp = luchtdruk
vv = zicht
sd = Zonneschijnduur
rr = neerslag

Weerstations in de omgeving